Regional Weather Roundup
Issued by NWS Albany, NY

Home | Current Version | Previous Version | Graphics & Text | Print | Product List | Glossary Off
Versions: 1 2 3 4 5 6 7 8 9 10 11 12 13 14 15 16 17 18 19 20 21 22 23 24 25 26 27 28 29 30 31 32 33 34 35 36 37 38 39 40 41 42 43 44 45 46 47 48 49 50

000
ASUS41 KALY 300510
RWRALY

NEW YORK STATE HOURLY WEATHER ROUNDUP
NATIONAL WEATHER SERVICE ALBANY NY
100 AM EDT SUN AUG 30 2015

NOTE: "FAIR" INDICATES FEW OR NO CLOUDS BELOW 12,000 FEET WITH NO
SIGNIFICANT WEATHER AND/OR NO OBSTRUCTIONS TO VISIBILITY.

NYZ032-033-038>043-046>054-057>066-NYZ062>081-300600-
EAST


CITY           SKY/WX    TMP DP  RH WIND       PRES   REMARKS
ALBANY         PTCLDY    65  60  84 CALM      30.09R
GLENS FALLS    CLOUDY    65  62  90 CALM      30.07F
POUGHKEEPSIE   PTCLDY    65  61  87 CALM      30.09S
NEWBURGH       MOCLDY    66  63  88 CALM      30.12S
MONTGOMERY     PTCLDY    63  61  93 CALM      30.11R
WHITE PLAINS   PTCLDY    66  62  87 CALM      30.12R
ISLIP          MOCLDY    73  65  75 SW10      30.11R
NEW YORK CITY  MOCLDY    76  58  53 SW12      30.11R
CENTRAL PARK   PTCLDY    75  58  55 VRB6G18   30.14R
$$

NYZ005>009-017-018-044>046-055-056-300600-
CENTRAL


CITY           SKY/WX    TMP DP  RH WIND       PRES   REMARKS
FULTON         CLOUDY    65  59  81 CALM      30.10R
SYRACUSE       CLOUDY    64  61  90 SE3       30.09S
ROME           CLOUDY    60  58  92 E3        30.11S
ELMIRA         MOCLDY    59  58  96 CALM      30.11S FOG
BINGHAMTON     PTCLDY    64  59  83 E5        30.13F
MONTICELLO     MOCLDY    63  61  94 CALM      30.15S
$$

NYZ026>034-041>043-300600-
NORTH


CITY           SKY/WX    TMP DP  RH WIND       PRES   REMARKS
WATERTOWN      CLOUDY    62  59  90 CALM      30.08S
FORT DRUM      NOT AVBL
MASSENA        CLOUDY    63  60  90 SW6       30.07F
SARANAC LAKE   CLOUDY    58  55  90 CALM      30.11S
PLATTSBURGH    CLOUDY    65  60  84 CALM      30.06F
$$

NYZ001>004-010>016-019>021-300600-
WEST


CITY           SKY/WX    TMP DP  RH WIND       PRES   REMARKS
NIAGARA FALLS  CLOUDY    67  61  81 SW5       30.08R
BUFFALO        LGT RAIN  69  61  75 CALM      30.09R
DUNKIRK        LGT RAIN  66  63  90 S8        30.09R
JAMESTOWN      CLOUDY    63  61  94 CALM      30.13S
WELLSVILLE     LGT RAIN  62  58  86 W6        30.17R
ROCHESTER      CLOUDY    69  62  78 CALM      30.09S
PENN YAN       CLOUDY    65  63  93 SW3       30.12S
$$

             KEY
       WCI = WIND CHILL INDEX
       VSB = VISIBILITY
       HX  = HEAT INDEX
$$


USA.gov is the U.S. government's official web portal to all federal, state and local government web resources and services.